User: anonymous   Login
Location: �couen
(49.0206°N, 2.3831°E)
Time: 13:15:33
(UTC+00:00)
Language:

Cosmos 2227 - Orbit

View from above orbital plane
View from above orbital plane
View from above satellite
View from above satellite

Ground track
Ground track

The orbit data is extracted from the following two-line orbital elements,

1 22284U 92093A   22272.90083106  .00000306  00000-0  18776-3 0  9994
2 22284  70.9794 147.7936 0017463 137.6801 222.5672 14.13383807535164
Epoch (UTC): 29 September 2022 21:37:11
Eccentricity: 0.0017463
inclination: 70.9794°
perigee height: 835 km
apogee height: 860 km
right ascension of ascending node: 147.7936°
argument of perigee: 137.6801°
revolutions per day: 14.13383807
mean anomaly at epoch: 222.5672°
orbit number at epoch: 53516

The dashed part of the orbit path shows where the satellite is in the earth's shadow,  

DLR